Location: Newark
(51.3318°N, 0.0053°E)
Time: 01:46:54
(UTC+00:00)

Envisat - Pass Details

Date: 28 January 2022
Orbit: 764 x 765 km, 98.2° (Epoch: 28 May)

Event Time Altitude Azimuth Distance (km) Brightness Sun altitude
Rises 17:44:28 0° 227° (SW) 3,223 7.5 -9.7°
Reaches altitude 10° 17:49:10 10° 267° (W) 2,305 6.9 -10.4°
Maximum altitude 17:50:04 10° 277° (W) 2,276 6.6 -10.5°
Drops below altitude 10° 17:50:59 10° 288° (WNW) 2,308 6.4 -10.7°
Sets 17:55:43 0° 328° (NNW) 3,242 6.5 -11.4°
